{"data":{"norad_id":53562,"epoch":"2026-05-25T04:48:31.260384Z","epoch_age_seconds":60919,"freshness":"FRESH","line1":"1 53562U 22101AM  26145.20036181 -.00000109  00000+0  11231-4 0  9998","line2":"2 53562  53.2136  70.7932 0001191  74.2911 285.8213 15.08843855208654","mean_motion":15.08843855,"eccentricity":0.0001191,"inclination_deg":53.2136,"raan_deg":70.7932,"arg_perigee_deg":74.2911,"mean_anomaly_deg":285.8213,"bstar":1.1231e-5,"rev_number":20865,"period_min":95.437310840889,"perigee_km":538.90768764546,"apogee_km":540.55552394736,"semimajor_km":6917.8686057964,"source":"CELESTRAK","updated_at":"2026-05-25T13:38:17.447031Z"}}